Tracking 27172 objects as of 2-Apr-2023
HD Live streaming from Space Station
objects crossing your sky now

CZ-3B R/B

Track CZ-3B R/B now!
10-day predictions


NORAD ID: 43110
Int'l Code: 2018-003D
Perigee: 493.4 km
Apogee: 17,495.9 km
Inclination: 55.0 °
Period: 315.9 minutes
Semi major axis: 15365 km
RCS: Unknown
Launch date: January 11, 2018
Source: People's Republic of China (PRC)
Launch site: Xichang Space Center, China (XSC)

Note: This is a ROCKET BODY
Your satellite tracking list
Your tracking list is empty




NASA's NSSDC Master Catalog

Two Line Element Set (TLE):
1 43110U 18003D   23091.07966694  .00000572  00000-0  10714-2 0  9992
2 43110  54.9676  57.4323 5532633  57.2514 344.4648  4.55803641 86400
Source of the keplerian elements: AFSPC